Independence of the Seas — C6WW4 — position and weather

sailwx.info

Track history (hours):
 
Tides and Currents Weather Stations Pressure Air Temp Water Temp Dewpoint Dewpoint Depression Visibility Wind Speed Wind Dir Waves Ship Positions

Independence of the Seas

Last reported at 2014-Nov-22 17:30 UTC. Time now 2014-Nov-22 18:02 UTC.
Position N 26°05' W 080°07'.

Length 339 m; draft 8.8 m.

Type: Passenger vessel. MMSI: 309374000.

Date/timePositionNaut miles runAvg speedWind from/ knotsBaromVisibWave heightAir tempDewpointWater temp
2014-Nov-22 17:30N 26°05' W 080°07'0 0.0
2014-Nov-22 16:30N 26°05' W 080°07'0 0.0
2014-Nov-22 15:33N 26°05' W 080°07'0 0.0
2014-Nov-22 14:33N 26°05' W 080°07'0 0.0
2014-Nov-22 13:33N 26°05' W 080°07'0 0.0
2014-Nov-22 12:33N 26°05' W 080°07'0 0.0
2014-Nov-22 11:33N 26°05' W 080°07'0 0.0
2014-Nov-22 10:33N 26°05' W 080°07'2 1.6
2014-Nov-22 09:33N 26°06' W 080°05'1010.2
2014-Nov-22 08:33N 25°57' W 079°59'1817.3
2014-Nov-22 07:33N 25°40' W 079°58'49116.4
2014-Nov-21 01:32N 20°34' W 086°57'6 5.4
2014-Nov-21 00:28N 20°29' W 086°59'0 0.0
2014-Nov-20 23:28N 20°29' W 086°59'0 0.0
2014-Nov-20 22:28N 20°29' W 086°59'0 0.0
2014-Nov-20 21:28N 20°29' W 086°59'0 0.0
2014-Nov-20 20:28N 20°29' W 086°59'0 0.0
2014-Nov-20 19:16N 20°29' W 086°59'0 0.0
2014-Nov-20 18:28N 20°29' W 086°59'0 0.0
2014-Nov-20 17:28N 20°29' W 086°59'0 0.0
2014-Nov-20 16:28N 20°29' W 086°59'0 0.0
2014-Nov-20 15:28N 20°29' W 086°59'1 1.0
2014-Nov-20 14:33N 20°29' W 086°60'  
2014-Nov-16 00:23N 25°55' W 080°00'1214.6
2014-Nov-15 23:33N 26°06' W 080°06'1 1.3
2014-Nov-15 22:33N 26°05' W 080°07'0 0.0
2014-Nov-15 21:21N 26°05' W 080°07'0 0.0
2014-Nov-15 20:33N 26°05' W 080°07'0 0.0
2014-Nov-15 19:33N 26°05' W 080°07'0 0.0
2014-Nov-15 18:24N 26°05' W 080°07'0 0.0
2014-Nov-15 17:27N 26°05' W 080°07'0 0.0
2014-Nov-15 16:27N 26°05' W 080°07'0 0.0
2014-Nov-15 15:27N 26°05' W 080°07'0 0.0
2014-Nov-15 14:27N 26°05' W 080°07'0 0.0
2014-Nov-15 13:30N 26°05' W 080°07'0 0.0
2014-Nov-15 12:30N 26°05' W 080°07'0 0.0
2014-Nov-15 11:33N 26°05' W 080°07'0 0.0
2014-Nov-15 10:33N 26°05' W 080°07'3 2.9
2014-Nov-15 09:33N 26°06' W 080°04'1010.0
2014-Nov-15 08:33N 26°07' W 079°53'1010.3
2014-Nov-15 07:33N 26°10' W 079°42'  
Track history (hours):
 
Tides and Currents Weather Stations Pressure Air Temp Water Temp Dewpoint Dewpoint Depression Visibility Wind Speed Wind Dir Waves Ship Positions

Independence of the Seas

Last reported at 2014-Nov-22 17:30 UTC. Time now 2014-Nov-22 18:02 UTC.
Position N 26°05' W 080°07'.

Length 339 m; draft 8.8 m.

Type: Passenger vessel. MMSI: 309374000.

Date/timePositionNaut miles runAvg speedWind from/ knotsBaromVisibWave heightAir tempDewpointWater temp
2014-Nov-22 17:30N 26°05' W 080°07'0 0.0
2014-Nov-22 16:30N 26°05' W 080°07'0 0.0
2014-Nov-22 15:33N 26°05' W 080°07'0 0.0
2014-Nov-22 14:33N 26°05' W 080°07'0 0.0
2014-Nov-22 13:33N 26°05' W 080°07'0 0.0
2014-Nov-22 12:33N 26°05' W 080°07'0 0.0
2014-Nov-22 11:33N 26°05' W 080°07'0 0.0
2014-Nov-22 10:33N 26°05' W 080°07'2 1.6
2014-Nov-22 09:33N 26°06' W 080°05'1010.2
2014-Nov-22 08:33N 25°57' W 079°59'1817.3
2014-Nov-22 07:33N 25°40' W 079°58'49116.4
2014-Nov-21 01:32N 20°34' W 086°57'6 5.4
2014-Nov-21 00:28N 20°29' W 086°59'0 0.0
2014-Nov-20 23:28N 20°29' W 086°59'0 0.0
2014-Nov-20 22:28N 20°29' W 086°59'0 0.0
2014-Nov-20 21:28N 20°29' W 086°59'0 0.0
2014-Nov-20 20:28N 20°29' W 086°59'0 0.0
2014-Nov-20 19:16N 20°29' W 086°59'0 0.0
2014-Nov-20 18:28N 20°29' W 086°59'0 0.0
2014-Nov-20 17:28N 20°29' W 086°59'0 0.0
2014-Nov-20 16:28N 20°29' W 086°59'0 0.0
2014-Nov-20 15:28N 20°29' W 086°59'1 1.0
2014-Nov-20 14:33N 20°29' W 086°60'  
2014-Nov-16 00:23N 25°55' W 080°00'1214.6
2014-Nov-15 23:33N 26°06' W 080°06'1 1.3
2014-Nov-15 22:33N 26°05' W 080°07'0 0.0
2014-Nov-15 21:21N 26°05' W 080°07'0 0.0
2014-Nov-15 20:33N 26°05' W 080°07'0 0.0
2014-Nov-15 19:33N 26°05' W 080°07'0 0.0
2014-Nov-15 18:24N 26°05' W 080°07'0 0.0
2014-Nov-15 17:27N 26°05' W 080°07'0 0.0
2014-Nov-15 16:27N 26°05' W 080°07'0 0.0
2014-Nov-15 15:27N 26°05' W 080°07'0 0.0
2014-Nov-15 14:27N 26°05' W 080°07'0 0.0
2014-Nov-15 13:30N 26°05' W 080°07'0 0.0
2014-Nov-15 12:30N 26°05' W 080°07'0 0.0
2014-Nov-15 11:33N 26°05' W 080°07'0 0.0
2014-Nov-15 10:33N 26°05' W 080°07'3 2.9
2014-Nov-15 09:33N 26°06' W 080°04'1010.0
2014-Nov-15 08:33N 26°07' W 079°53'1010.3
2014-Nov-15 07:33N 26°10' W 079°42'  

Dump ship's entire track history